Chino, CA

4:58 AM PDT on June 28, 2017 (GMT -0700)
Chino

Weather History for KCNO - November, 2012

Change the Weather History Date:

Wednesday, November 28, 2012

  Actual Average Record
Temperature  
Mean Temperature 58 °F -  
Max Temperature 66 °F 66 °F 84 °F (2014)
Min Temperature 50 °F 38 °F 33 °F (2005)
Degree Days  
Heating Degree Days 7    
Growing Degree Days 8 (Base 50)    
Moisture  
Dew Point 51 °F    
Average Humidity 77    
Maximum Humidity 94    
Minimum Humidity 52    
Precipitation  
Precipitation 0.00 in - - ()
Sea Level Pressure  
Sea Level Pressure 30.17 in    
Wind  
Wind Speed 3 mph (West)    
Max Wind Speed 10 mph    
Max Gust Speed 30 mph    
Visibility 4 miles    
Events      
Averages and records for this station are not official NWS values.
T = Trace of Precipitation, MM = Missing Value Source: NWS Daily Summary

Daily Weather History Graph

Daily Weather History Graph

Search for Another Location

Airport or City:

Trip Planner

Search our weather history database for the weather conditions in past years. The results will help you decide how hot, cold, wet, or windy it might be!

Date:

Astronomy

Nov. 28, 2012 Rise Set
Actual Time 6:35 AM PST 4:41 PM PST
Civil Twilight 6:08 AM PST 5:08 PM PST
Nautical Twilight 5:37 AM PST 5:39 PM PST
Astronomical Twilight 5:07 AM PST 6:09 PM PST
Moon 5:00 PM PST 6:36 AM PST
Length of Visible Light 11h 00m
Length of Day
10h 06m
Full, 100% of the Moon is Illuminated
Nov 28
Full
Dec 6
Last Quarter
Dec 13
New
Dec 19
First Quarter
Dec 28
Full

Hourly Weather History & Observations

Time (PST) Temp. Dew Point Humidity Pressure Visibility Wind Dir Wind Speed Gust Speed Precip Events Conditions
12:06 AM 55.4 °F 51.8 °F 88% 30.16 in 2.5 mi Calm Calm - N/A   Overcast
12:53 AM 55.0 °F 52.0 °F 89% 30.14 in 2.5 mi Calm Calm - N/A   Overcast
1:53 AM 55.0 °F 52.0 °F 89% 30.13 in 2.0 mi ESE 3.5 mph - N/A   Overcast
2:53 AM 54.0 °F 51.1 °F 90% 30.12 in 2.0 mi Calm Calm - N/A   Overcast
3:14 AM 50.0 °F 48.2 °F 94% 30.13 in 1.5 mi Calm Calm - N/A   Overcast
3:23 AM 51.8 °F 48.2 °F 88% 30.13 in 1.8 mi Calm Calm - N/A   Overcast
3:32 AM 53.6 °F 51.8 °F 94% 30.14 in 2.0 mi Calm Calm - N/A   Overcast
3:53 AM 54.0 °F 52.0 °F 93% 30.14 in 2.0 mi WNW 3.5 mph - N/A   Overcast
4:11 AM 55.4 °F 51.8 °F 88% 30.14 in 2.0 mi NW 5.8 mph - N/A   Overcast
4:53 AM 55.0 °F 52.0 °F 89% 30.13 in 2.0 mi North 4.6 mph - N/A   Overcast
5:53 AM 55.0 °F 51.1 °F 86% 30.14 in 2.0 mi East 4.6 mph - N/A   Overcast
6:53 AM 54.0 °F 51.1 °F 90% 30.15 in 2.5 mi East 6.9 mph - N/A   Overcast
7:15 AM 55.4 °F 51.8 °F 88% 30.17 in 1.2 mi East 4.6 mph - N/A   Overcast
7:53 AM 55.0 °F 51.1 °F 86% 30.19 in 1.2 mi Calm Calm - N/A   Overcast
8:53 AM 57.0 °F 51.1 °F 81% 30.20 in 2.5 mi West 6.9 mph - N/A   Haze
9:07 AM 57.2 °F 50.0 °F 77% 30.21 in 2.5 mi West 9.2 mph 29.9 mph N/A   Haze
9:53 AM 59.0 °F 51.1 °F 75% 30.21 in 3.0 mi WNW 9.2 mph - N/A   Haze
10:53 AM 61.0 °F 50.0 °F 67% 30.20 in 3.0 mi Variable 3.5 mph - N/A   Haze
11:53 AM 64.0 °F 50.0 °F 60% 30.17 in 4.0 mi SE 4.6 mph - N/A   Haze
12:53 PM 64.0 °F 48.9 °F 58% 30.15 in 3.0 mi WSW 3.5 mph - N/A   Haze
1:53 PM 66.9 °F 48.9 °F 52% 30.13 in 3.0 mi WNW 3.5 mph - N/A   Haze
2:53 PM 66.9 °F 48.9 °F 52% 30.12 in 5.0 mi SW 9.2 mph - N/A   Haze
3:53 PM 64.9 °F 48.9 °F 56% 30.14 in 6.0 mi WSW 10.4 mph - N/A   Haze
4:53 PM 62.1 °F 50.0 °F 65% 30.14 in 8.0 mi West 8.1 mph - 0.00 in   Overcast
5:53 PM 61.0 °F 50.0 °F 67% 30.17 in 10.0 mi West 10.4 mph - N/A   Overcast
6:53 PM 60.1 °F 51.1 °F 72% 30.19 in 10.0 mi West 5.8 mph - N/A   Mostly Cloudy
7:53 PM 59.0 °F 51.1 °F 75% 30.19 in 10.0 mi WNW 3.5 mph - N/A   Mostly Cloudy
8:53 PM 60.1 °F 51.1 °F 72% 30.20 in 7.0 mi WNW 4.6 mph - N/A   Overcast
9:53 PM 60.1 °F 50.0 °F 69% 30.21 in 7.0 mi Calm Calm - N/A   Overcast
10:53 PM 60.1 °F 51.1 °F 72% 30.22 in 7.0 mi West 3.5 mph - N/A   Overcast
11:34 PM 59.0 °F 51.8 °F 77% 30.23 in 5.0 mi Calm Calm - N/A   Haze
11:53 PM 59.0 °F 52.0 °F 78% 30.22 in 5.0 mi Calm Calm - N/A   Haze